Theta_e
317 317 317 318 319 319 318 317 317 316 316 318 321 322 322 322 322 322 322 322 321 321 321 320 318 317 317 316 317 317 316 316 315 315 314 313 313 312 313 313 313 313 313 313 314 314 316 316 316 317 317 318 318 320 320 320 318 322 331 330 325 326 319 316 319 317 316 315 314 313 314 314 312 311 311 311 310 308 307 307 306 306 305 304 303 303 302 302
317 317 317 318 319 319 320 319 318 317 317 317 319 320 321 322 322 322 321 321 321 321 321 320 319 318 317 317 317 317 316 315 314 314 314 313 313 313 313 314 313 314 313 314 314 315 316 317 317 317 318 318 319 320 319 320 317 322 331 325 328 330 316 313 316 313 314 315 313 313 313 313 312 311 311 311 307 306 306 304 304 305 303 303 303 303 303 303
316 316 317 317 318 319 320 320 320 319 318 317 317 319 320 321 321 321 321 320 320 321 321 320 320 318 317 317 317 318 317 316 315 314 314 312 313 313 313 314 314 315 314 314 314 315 316 316 317 317 317 318 319 320 319 320 318 317 322 324 331 326 313 312 314 313 315 314 312 313 312 312 312 311 311 310 307 307 306 304 304 303 303 303 303 303 303 303
314 314 315 316 316 318 319 320 320 320 319 318 318 318 318 319 320 320 320 320 320 320 321 320 320 318 317 317 317 317 317 319 317 314 314 313 313 313 313 314 314 315 315 315 315 314 316 315 316 316 317 318 318 319 319 318 318 315 317 323 324 316 313 314 313 314 314 313 312 312 312 312 312 312 311 309 310 309 305 306 307 306 304 303 303 302 302 302
313 313 314 314 315 315 317 318 319 320 320 319 319 318 318 318 318 319 319 319 319 319 320 320 320 319 317 317 318 317 318 323 320 314 314 313 312 313 313 314 314 315 315 316 316 315 315 314 314 315 315 317 317 319 319 317 316 315 315 318 316 313 314 314 312 314 313 313 312 311 311 312 312 311 310 310 314 312 307 308 308 307 305 303 302 302 302 302
313 313 313 313 314 314 315 316 318 319 319 319 319 319 318 318 318 318 318 318 319 319 319 320 320 319 318 318 319 319 320 323 319 314 314 313 313 314 313 314 314 315 315 316 317 316 315 314 314 314 314 315 315 317 318 316 315 316 316 314 313 313 314 313 312 313 312 312 311 310 311 311 312 311 309 309 312 311 309 308 307 305 304 303 302 301 301 301
312 312 313 313 313 314 314 314 316 317 318 318 319 318 318 318 318 317 318 318 318 318 319 320 320 319 318 318 320 321 320 319 317 315 314 314 314 314 314 315 314 314 316 317 317 316 315 315 314 313 315 317 315 316 317 316 314 317 318 314 314 314 313 313 312 312 312 311 311 311 311 311 313 312 310 308 309 309 308 307 305 304 303 302 301 301 301 301
312 312 312 312 313 313 313 314 314 315 316 317 318 318 318 317 317 316 316 316 316 317 318 319 320 319 318 318 318 321 320 317 316 315 314 314 314 314 315 315 314 314 317 318 316 316 315 315 314 313 315 316 315 315 314 315 315 317 319 314 313 315 314 313 313 312 312 311 310 311 310 311 312 312 308 306 307 307 305 305 304 303 301 301 301 300 300 300
311 311 312 312 312 312 312 313 313 314 315 316 316 317 317 317 316 316 315 315 315 315 317 319 319 318 318 317 317 319 320 320 318 315 314 314 315 315 315 315 314 315 317 317 315 315 316 314 313 313 314 314 315 315 314 314 315 315 316 313 312 314 313 314 313 312 312 311 310 311 310 310 311 311 308 304 305 305 304 304 303 302 301 300 300 300 300 300
311 311 311 311 311 312 312 312 312 313 313 314 315 316 317 317 316 316 315 315 314 314 316 318 319 318 319 317 317 319 320 320 319 316 315 315 315 315 316 315 315 316 317 317 315 315 316 315 313 312 314 315 314 313 313 314 315 314 313 312 312 313 312 313 313 312 312 311 311 311 311 310 309 312 311 305 304 304 303 303 302 302 301 300 300 300 300 300
310 310 311 311 311 311 311 311 312 312 313 313 313 314 316 316 316 316 316 315 314 314 315 318 318 318 318 317 318 320 319 319 318 316 314 314 315 316 315 315 315 315 316 316 315 315 316 316 313 312 314 315 314 313 312 313 314 314 313 313 313 312 312 312 312 312 312 311 311 312 311 309 309 312 312 305 303 304 303 303 302 302 302 300 301 300 300 300
310 310 310 310 310 310 311 311 311 311 311 312 312 313 314 315 315 316 316 315 315 314 315 318 317 318 318 317 318 319 319 318 316 315 314 315 315 316 315 315 315 315 316 315 315 315 315 316 314 312 313 314 314 313 313 313 313 313 312 314 314 314 315 312 312 312 312 312 311 311 312 311 310 311 311 306 303 304 303 303 302 302 302 301 301 300 300 300
310 310 310 310 310 310 310 310 311 311 311 311 311 311 312 314 315 316 316 315 315 314 316 317 317 318 318 317 318 319 318 317 316 314 314 315 315 316 316 315 316 315 315 315 315 316 316 316 314 313 312 312 314 313 313 312 311 313 311 312 316 318 319 313 310 312 311 312 311 311 314 316 313 309 309 306 303 303 303 302 302 302 301 300 300 300 300 299
310 310 310 310 310 310 310 310 310 310 310 310 310 311 311 313 314 315 315 315 315 315 317 316 316 318 317 317 318 318 317 316 315 314 314 315 315 315 315 315 316 316 316 315 315 316 316 316 315 314 312 312 313 312 313 312 313 314 310 317 319 316 323 318 309 311 312 312 312 312 315 316 314 309 307 306 304 303 302 302 302 301 301 300 300 300 300 298
309 309 309 309 310 309 310 310 310 310 310 310 310 310 311 312 313 314 315 315 315 316 315 315 317 318 318 318 318 317 317 315 314 314 314 315 315 316 315 315 316 316 317 316 315 317 317 316 314 314 313 313 313 315 319 320 322 319 312 323 324 314 325 323 308 310 313 312 311 312 315 314 313 308 305 305 304 303 302 301 301 301 300 300 300 300 299 298
309 309 309 309 309 309 309 309 309 309 309 310 310 310 311 311 313 314 315 315 316 316 315 317 319 318 318 318 317 317 317 316 315 315 314 315 315 316 315 315 316 316 317 316 316 317 316 315 315 315 313 312 315 322 326 326 331 329 317 320 325 317 319 318 310 309 311 312 311 311 314 314 312 307 304 304 303 303 302 300 301 301 300 300 299 300 299 297
309 309 309 309 309 309 309 309 309 309 309 310 309 310 310 311 313 313 314 315 316 315 316 319 320 319 319 317 317 318 318 317 316 316 316 316 316 316 315 315 316 316 317 317 316 317 316 315 314 314 314 310 315 324 324 323 328 330 322 318 322 319 313 314 314 310 308 311 312 311 312 312 311 306 304 304 303 302 302 300 300 300 300 300 299 300 299 297
309 309 309 308 309 309 309 309 309 309 309 309 310 310 310 312 313 313 315 316 315 317 319 320 319 317 317 317 317 318 318 318 317 317 317 316 316 315 315 315 316 316 317 317 316 317 315 313 314 322 323 314 316 323 321 320 320 318 319 317 317 316 312 312 314 310 310 312 312 312 312 311 310 307 304 304 303 302 302 300 300 300 300 300 299 299 299 297
309 309 309 308 308 309 309 309 309 310 309 310 310 310 311 312 312 313 316 316 314 316 319 320 317 314 314 316 317 317 318 318 318 317 316 316 315 314 315 315 316 316 317 318 319 316 314 316 320 327 329 320 315 319 317 318 318 314 314 315 314 315 312 311 311 310 310 312 312 312 312 311 311 309 306 304 303 302 301 301 300 300 300 300 299 299 298 297
309 309 308 308 308 308 309 309 309 309 309 309 310 311 313 313 314 317 316 313 314 314 315 316 315 314 314 315 316 316 317 317 317 317 315 315 314 314 315 314 316 318 317 320 320 314 315 325 325 324 327 321 313 315 315 314 315 312 312 314 313 313 312 310 311 311 308 311 314 312 311 311 310 310 306 304 303 301 300 300 299 299 299 299 299 299 298 297
309 308 308 308 308 308 309 309 309 309 309 310 311 313 314 313 315 317 314 313 314 313 313 313 313 314 315 315 317 317 317 316 316 316 315 314 314 314 314 314 317 322 317 314 315 316 318 324 327 326 324 317 312 313 314 312 312 311 312 314 313 312 312 310 310 310 307 309 314 313 311 310 309 309 306 303 302 301 300 299 299 299 299 300 299 299 298 297
309 308 308 308 308 308 308 309 309 309 310 312 313 315 315 314 314 314 313 314 313 313 314 314 314 315 315 316 317 317 316 315 315 315 315 313 314 314 313 315 318 322 318 314 319 324 325 327 328 323 313 309 311 312 312 311 311 312 312 313 314 313 313 313 311 310 308 309 314 315 311 309 309 308 305 302 302 302 302 301 300 300 299 299 299 299 298 297
309 309 308 308 308 308 309 309 309 309 310 313 315 315 314 314 314 312 313 315 315 314 315 316 316 316 317 317 316 316 315 314 314 315 314 313 314 314 313 316 319 319 317 319 324 324 326 332 325 312 306 309 312 312 312 311 311 313 312 313 315 313 313 315 313 312 311 310 312 313 310 308 308 308 307 304 302 303 302 301 301 300 300 300 300 299 297 296
309 309 308 308 308 308 309 309 309 310 311 314 316 315 314 314 313 313 314 315 315 315 314 317 317 316 318 316 315 316 314 313 314 314 314 313 313 313 313 314 317 319 317 320 324 321 323 323 312 307 310 312 312 313 314 312 315 320 317 313 314 314 313 314 313 312 312 313 313 310 308 309 308 307 308 305 302 302 301 300 300 300 300 300 300 299 297 296
309 309 309 308 308 309 309 309 310 310 312 315 317 315 314 314 313 314 314 314 316 317 317 317 317 317 317 316 315 314 313 313 313 313 313 313 313 313 312 312 316 321 319 317 317 319 320 313 307 311 315 314 313 316 318 315 317 322 321 316 314 315 314 314 314 312 312 315 313 308 309 314 311 308 309 306 302 302 300 298 299 299 299 300 300 298 296 296
310 310 309 308 308 308 308 310 311 312 314 315 315 314 314 313 313 314 316 319 319 318 318 318 317 318 317 316 315 313 315 316 312 313 313 312 313 312 314 314 313 317 317 314 314 316 314 308 310 316 317 317 316 316 320 317 314 318 318 317 316 313 312 312 311 311 314 314 310 308 310 311 309 308 310 308 305 303 299 298 298 298 299 299 299 297 296 296
310 310 309 309 309 308 309 311 312 313 314 314 315 314 313 313 313 312 315 318 317 317 321 319 316 318 317 316 315 314 318 317 312 312 311 312 313 312 316 317 314 313 310 312 320 319 312 309 313 316 316 317 315 316 319 315 316 320 315 313 313 311 311 311 309 310 312 310 308 308 308 307 307 309 309 307 306 303 300 299 298 297 298 298 298 297 296 296
311 310 310 309 309 309 309 310 312 313 313 315 316 315 314 313 313 315 314 312 313 319 322 319 316 316 315 314 315 314 315 314 314 313 310 312 312 311 314 315 319 319 309 312 325 319 311 313 316 316 315 315 318 321 319 315 317 319 312 309 309 308 309 309 308 310 309 307 308 309 307 308 310 310 307 303 304 304 301 299 298 297 297 297 297 296 296 295
311 311 311 310 309 309 309 309 311 312 313 316 316 315 315 311 311 317 315 309 313 320 319 317 316 315 314 314 314 314 313 312 314 313 310 311 311 312 313 312 314 316 309 310 322 319 311 312 313 316 318 318 321 321 316 316 315 311 308 308 310 309 308 307 307 308 309 308 309 309 308 309 312 314 309 303 304 305 302 300 298 297 297 297 296 296 295 295
312 312 312 310 310 309 309 310 311 312 314 315 315 315 312 312 317 321 315 311 316 319 315 314 316 314 313 315 315 313 312 313 312 310 309 309 310 310 310 310 309 311 314 312 315 317 310 306 308 311 314 314 315 310 306 309 308 306 309 311 313 312 310 309 309 308 309 311 312 311 309 309 311 313 310 307 308 306 303 302 299 297 296 296 296 296 295 294
312 313 312 311 310 310 310 311 311 312 314 315 316 314 311 315 323 323 316 312 313 316 315 315 315 314 315 318 318 314 311 312 310 309 311 310 310 310 309 313 314 317 325 322 317 316 311 308 308 308 307 307 310 308 305 306 305 307 313 313 313 315 313 313 313 310 312 318 316 309 307 307 309 311 310 308 307 305 305 303 300 298 296 295 296 295 295 294
313 313 313 312 310 310 311 311 312 312 313 315 314 313 313 314 317 319 320 317 312 315 319 318 315 316 318 318 320 317 314 314 311 309 315 314 313 316 316 321 323 321 326 326 322 320 317 315 309 306 306 306 311 312 309 310 310 310 313 313 314 318 318 317 316 314 315 318 312 303 304 306 307 309 309 308 306 304 304 302 300 299 295 295 295 295 295 294
313 313 313 312 310 310 311 310 312 313 313 312 310 313 317 314 314 317 320 318 313 314 318 320 319 319 319 318 323 321 316 317 314 310 315 314 313 321 321 319 321 319 319 320 320 320 322 318 309 308 310 307 311 314 314 316 313 309 311 315 318 318 319 320 319 318 318 318 309 300 302 307 307 307 308 307 305 302 302 301 300 299 296 295 295 295 294 294
312 312 313 313 310 310 311 311 312 313 312 309 308 315 318 315 316 317 318 318 316 316 318 320 319 319 318 320 325 322 316 318 317 312 314 315 315 322 320 313 315 320 319 317 319 319 321 323 316 313 313 308 309 313 319 320 312 307 310 314 316 318 319 320 320 321 319 317 310 301 304 311 311 307 305 301 297 297 299 300 299 298 296 295 295 294 294 293
312 312 313 313 311 310 311 312 312 312 310 306 308 316 316 314 317 317 318 321 318 317 318 319 319 319 319 322 323 320 315 317 316 313 315 317 318 323 324 320 317 319 320 318 320 316 316 322 317 308 306 308 309 307 309 316 314 307 306 309 313 315 317 317 316 316 312 310 308 304 307 311 309 304 299 295 294 294 295 295 295 296 295 295 295 294 294 293
312 312 312 312 311 310 311 313 313 311 308 305 309 315 314 314 319 318 317 319 320 321 319 318 320 320 321 324 323 318 314 315 316 315 317 316 316 319 324 325 318 314 317 319 321 316 314 321 313 303 304 305 305 303 302 309 315 308 305 309 312 309 310 312 312 310 307 308 310 308 309 310 309 305 297 295 296 294 293 293 293 293 294 294 294 293 293 293
312 312 312 312 311 309 311 314 315 311 306 305 309 314 313 313 318 319 317 315 317 321 320 318 320 321 322 322 322 320 316 315 315 316 319 317 315 316 318 319 314 312 314 316 319 318 316 318 311 307 310 304 298 301 301 301 307 310 309 310 309 305 305 309 311 309 307 309 311 310 309 310 313 310 298 295 297 295 293 293 292 292 292 292 293 293 293 293
311 311 310 310 309 309 311 314 317 313 306 304 307 312 315 313 312 313 315 314 315 319 320 319 317 319 322 320 321 321 317 316 316 316 320 318 314 316 317 316 312 310 310 310 314 317 315 317 312 305 307 303 298 303 306 301 300 306 307 304 306 309 309 308 309 310 311 312 313 312 311 311 312 310 303 298 298 295 293 293 293 293 292 291 293 293 293 293
310 311 311 310 308 309 310 314 318 315 307 304 306 310 314 314 310 310 313 314 314 317 319 320 315 314 319 320 322 320 315 316 316 315 317 316 314 314 313 314 313 307 305 308 314 315 313 317 316 303 301 303 302 306 312 308 300 300 301 301 303 308 309 309 308 309 313 314 315 315 315 314 310 309 308 303 297 295 293 292 293 293 291 292 293 293 293 293
311 312 313 310 308 309 311 315 317 311 306 306 307 308 310 313 312 311 312 312 313 315 317 319 317 314 316 317 319 320 316 316 316 314 315 315 315 314 310 312 315 308 303 305 311 312 311 316 317 306 300 304 306 307 310 311 306 302 302 303 302 302 306 308 306 307 310 312 313 314 315 315 309 306 309 306 299 295 294 293 293 292 291 292 293 293 293 292
311 312 313 311 308 310 312 314 313 308 307 310 309 307 309 311 311 312 312 312 312 313 315 318 318 316 315 315 316 318 316 316 315 314 316 315 314 314 311 311 312 309 306 306 310 313 312 315 315 310 305 306 309 308 306 308 309 306 305 305 304 303 306 309 308 307 307 309 312 313 314 315 308 303 305 305 300 296 294 294 294 292 291 292 293 294 293 292
311 313 312 310 309 310 312 313 312 310 310 311 310 309 308 309 311 311 312 312 313 312 312 316 317 316 315 315 316 317 317 317 316 313 315 316 313 313 313 310 308 308 309 311 312 310 309 312 313 312 311 308 305 303 301 302 304 305 305 306 306 305 306 310 312 309 306 306 307 308 310 312 305 301 303 303 299 295 294 294 293 292 292 293 293 293 293 292
312 313 311 309 310 311 312 313 313 312 312 312 311 311 309 309 310 311 312 312 313 313 313 314 315 314 315 315 315 316 317 318 317 314 316 316 313 312 312 310 307 307 309 311 310 306 307 312 313 312 314 309 302 300 300 299 300 303 305 304 304 305 306 308 310 309 309 308 305 305 308 310 303 300 301 298 296 295 294 294 293 292 292 294 294 293 292 292
312 313 311 310 310 312 312 312 311 312 312 312 312 312 311 310 310 311 312 312 313 314 314 314 313 313 315 315 313 314 316 315 316 315 315 317 314 310 308 308 308 308 310 311 312 309 310 314 314 313 316 314 307 305 305 302 300 302 304 303 303 305 306 306 306 306 309 309 306 306 310 310 302 298 298 296 296 296 294 293 294 293 292 293 293 292 292 291
312 313 312 310 310 312 312 311 310 311 311 311 311 312 312 312 311 311 312 311 312 312 314 315 314 311 313 314 313 314 315 313 315 316 314 315 313 305 303 305 307 307 308 309 309 309 312 315 314 314 315 316 313 312 313 310 302 300 301 302 302 303 304 305 305 306 307 308 307 307 310 309 302 298 298 297 296 296 294 292 293 293 293 293 292 292 292 291
313 313 312 310 310 311 311 311 310 310 311 311 311 311 311 311 312 311 311 311 311 311 312 314 313 312 314 314 313 314 314 312 315 316 314 317 316 305 299 302 303 304 305 305 306 309 313 313 311 313 314 314 313 312 314 313 306 303 303 301 301 302 303 304 305 306 307 307 307 307 307 308 305 302 300 296 295 296 295 293 291 292 293 293 292 292 291 291
313 313 312 310 310 310 310 310 310 310 310 311 311 312 312 311 311 311 312 312 311 311 312 312 312 313 315 315 313 314 314 312 313 314 314 318 316 304 297 298 300 301 303 303 304 309 314 312 310 311 311 312 313 312 312 312 309 309 309 304 302 301 302 304 304 305 306 306 307 308 307 307 307 306 303 298 295 296 295 292 291 291 292 292 292 292 291 291
314 313 311 311 311 310 310 310 311 310 310 310 310 311 312 312 311 311 312 312 312 312 312 313 313 314 314 314 314 314 314 314 313 313 313 315 313 306 301 300 299 299 301 302 302 306 312 312 310 310 310 310 311 311 311 312 310 310 310 309 306 301 301 303 303 304 305 306 307 308 308 308 308 307 305 301 297 296 295 293 292 292 292 291 291 291 291 291
314 313 311 311 310 310 310 310 310 310 310 310 310 310 310 311 311 311 312 313 313 312 312 313 313 313 313 314 314 314 314 314 314 313 312 313 313 310 309 307 301 297 299 301 301 302 308 311 310 309 309 309 309 309 309 309 308 308 308 308 308 304 301 302 302 303 304 305 306 306 306 307 307 306 306 303 300 297 295 294 292 292 291 291 291 291 291 291
314 313 311 310 310 309 309 309 310 311 310 309 310 310 309 309 310 310 311 313 314 313 312 313 313 313 313 314 313 314 314 313 314 315 313 313 313 312 311 312 307 299 297 300 301 301 305 310 310 308 309 309 308 308 308 307 307 308 308 307 308 307 305 303 302 302 303 303 304 304 304 305 304 304 304 302 299 297 295 293 291 291 291 291 291 291 291 291
315 314 312 310 309 309 308 308 309 310 311 310 309 309 309 309 309 309 310 311 313 313 312 313 313 313 313 314 313 313 313 313 313 313 312 312 312 312 311 310 308 304 299 299 301 302 304 307 309 308 309 310 309 308 307 306 305 305 306 306 306 306 307 306 305 304 304 304 303 303 303 303 303 304 303 300 298 297 295 291 290 291 292 291 291 291 291 291
315 315 313 312 311 310 309 308 309 310 311 311 310 309 309 309 309 309 310 310 310 312 312 313 313 313 313 313 313 313 312 312 313 312 311 311 310 310 310 307 306 308 302 298 300 302 303 306 308 307 309 310 307 305 304 304 305 307 308 308 307 305 305 306 306 305 305 304 304 304 304 304 303 303 302 300 299 298 295 292 291 291 291 290 291 291 291 291
Wind_Speed
12 12 12 13 13 13 13 14 15 15 16 17 17 18 19 20 21 22 23 24 24 24 24 20 15 12 7 7 8 9 9 9 7 7 9 13 13 13 14 14 13 13 11 9 8 5 2 3 4 5 7 6 5 5 5 6 7 3 2 4 1 1 1 2 5 5 4 2 2 0 3 6 7 11 15 12 14 21 21 20 20 18 17 17 16 14 12 10
11 12 12 13 13 13 13 14 14 15 15 16 16 17 18 19 20 21 22 23 24 23 23 20 15 11 8 5 6 7 8 8 7 8 11 12 12 13 15 15 15 14 13 11 9 6 5 5 4 5 7 6 4 4 4 4 6 4 2 3 1 3 1 1 5 5 3 4 3 2 3 4 6 10 13 6 9 18 19 16 18 19 18 16 14 12 10 9
11 12 12 13 14 14 14 14 14 15 15 15 15 16 16 17 18 19 20 22 23 22 22 20 14 11 8 3 4 5 6 7 6 8 9 10 11 13 13 14 14 14 14 13 11 9 6 6 7 6 7 6 3 3 3 4 4 2 3 2 4 5 2 1 6 7 4 6 5 3 4 2 5 7 11 11 9 8 11 13 13 17 19 16 14 12 10 8
11 12 12 13 14 14 15 15 15 15 15 15 15 15 15 16 17 18 19 20 21 21 20 19 15 10 8 4 2 2 2 2 3 5 6 7 9 11 11 12 12 12 13 13 12 11 9 8 8 5 5 5 3 2 2 3 3 1 2 2 5 5 3 3 8 8 6 7 6 4 4 3 5 3 14 20 11 1 10 17 13 16 22 18 16 13 10 9
12 12 12 13 13 14 14 15 15 15 15 15 16 15 15 15 16 17 18 18 19 20 19 18 15 9 6 5 2 0 1 1 0 3 4 5 7 8 10 10 9 9 11 12 12 11 10 10 8 5 4 3 3 2 1 2 3 2 2 4 4 3 3 5 7 7 6 8 6 5 4 0 1 5 17 22 8 6 16 17 14 17 21 19 18 15 12 10
12 12 13 13 13 14 14 15 15 15 15 15 15 15 15 15 15 16 16 17 17 18 18 17 15 9 5 3 2 2 2 1 3 3 3 3 4 7 8 8 8 7 8 10 10 10 9 10 10 6 4 3 3 1 0 3 3 1 3 3 2 2 4 6 6 6 6 8 6 3 2 2 4 5 11 13 6 13 19 16 17 18 19 19 18 15 12 11
12 12 13 13 13 14 14 15 15 15 15 15 15 15 15 15 15 15 16 17 17 16 17 16 14 9 4 2 1 1 2 1 3 3 3 2 3 5 6 7 7 6 6 9 10 11 10 12 12 8 3 3 2 1 1 4 3 2 3 4 1 1 3 5 5 5 5 7 5 3 3 5 7 4 6 8 9 18 20 18 20 20 20 18 16 14 12 12
12 13 13 13 14 14 14 15 15 15 15 15 15 15 15 15 15 15 16 17 16 15 15 14 14 10 4 3 3 2 2 2 2 3 3 2 2 4 5 6 6 5 7 10 10 10 11 12 11 8 2 2 2 2 2 4 3 3 2 4 3 4 2 2 2 3 4 6 5 4 4 4 10 8 7 13 18 22 22 21 21 20 20 18 16 15 13 12
13 13 13 14 14 14 15 15 15 15 16 15 15 15 15 15 15 16 16 17 16 15 14 13 13 10 5 4 5 4 4 4 3 3 4 2 1 2 4 4 4 5 8 9 9 8 10 10 8 7 2 1 2 3 2 2 3 2 2 4 4 6 7 4 1 2 4 5 3 3 4 2 12 9 5 15 22 23 23 22 21 21 21 18 16 14 12 11
13 13 14 15 15 15 16 16 16 16 16 16 15 15 16 16 15 16 16 17 16 15 13 12 12 10 6 4 4 3 3 5 4 5 5 4 1 1 3 4 3 5 8 7 6 6 9 10 8 7 3 1 3 4 1 1 2 2 2 5 5 8 9 7 4 4 6 6 3 2 2 7 16 8 2 16 25 24 25 23 22 21 19 18 15 14 11 9
13 13 14 15 15 16 16 16 17 17 17 17 16 15 16 16 16 16 16 17 16 14 13 11 12 10 7 5 5 4 3 3 4 5 6 5 2 1 2 3 2 4 7 7 5 5 8 10 8 6 2 1 5 5 1 1 2 4 4 7 9 9 9 6 6 6 6 4 4 1 3 10 12 4 7 23 28 27 26 24 23 20 18 17 14 13 10 8
13 14 14 15 16 16 17 18 18 18 18 18 17 16 16 16 16 16 16 17 16 15 12 10 11 9 7 7 6 5 4 4 4 5 6 5 3 0 2 2 2 3 6 6 4 4 7 9 9 6 3 3 4 3 1 3 5 5 3 5 7 9 6 6 5 7 6 4 4 1 2 5 8 6 10 27 32 28 26 25 23 20 18 17 14 12 9 7
14 14 14 15 16 16 17 18 18 19 18 18 18 17 16 16 16 16 16 16 16 15 11 10 11 8 7 6 7 6 5 5 5 6 7 6 3 1 2 2 3 3 6 5 2 4 7 9 8 6 4 4 2 1 3 6 4 4 1 0 3 7 5 4 2 5 5 3 4 2 3 5 8 8 12 28 34 30 27 26 24 22 19 17 14 12 10 7
14 15 15 15 16 16 17 17 18 19 18 19 19 18 17 16 16 16 15 15 16 12 9 11 10 6 5 5 6 6 6 6 6 8 8 7 4 2 2 2 3 4 6 5 2 4 8 8 8 6 4 3 3 4 5 4 2 1 1 2 2 2 4 6 1 6 4 3 5 6 3 7 7 8 18 32 35 33 29 27 26 24 21 19 16 13 11 8
15 15 15 15 16 17 17 18 19 19 19 20 19 19 18 16 16 14 13 14 12 8 10 13 9 6 5 5 6 7 8 8 9 8 7 7 5 4 3 3 3 3 6 4 1 5 9 6 6 5 3 3 4 3 4 4 3 2 2 3 3 1 5 9 1 7 5 3 6 6 3 7 7 8 22 33 33 32 29 27 27 25 23 20 18 15 11 9
15 16 16 16 16 16 17 18 18 19 20 19 20 20 17 18 16 11 12 12 8 9 13 11 6 6 4 4 6 7 9 9 9 9 9 7 6 5 5 4 3 3 5 3 1 5 8 4 4 5 3 3 3 3 4 4 4 3 2 3 3 2 3 6 3 5 7 3 4 5 4 6 6 8 23 29 30 29 26 26 28 26 25 22 19 16 13 10
17 16 16 16 16 16 17 17 18 20 19 20 21 20 19 17 12 11 12 8 7 13 13 7 6 6 7 6 7 8 10 10 9 9 9 8 7 6 5 4 3 2 3 1 1 5 5 2 3 2 3 4 3 4 4 4 4 4 3 2 4 3 3 4 5 4 4 3 4 5 5 8 6 7 22 27 28 27 25 27 28 28 26 23 21 18 14 11
19 18 17 17 16 16 17 17 18 19 20 21 21 22 20 13 11 12 8 4 9 13 7 5 3 3 6 7 7 7 7 8 8 8 9 8 7 5 5 4 3 2 1 0 1 3 3 1 3 2 4 5 3 5 2 3 3 4 4 4 4 3 4 5 5 3 2 2 5 4 6 12 8 6 19 26 28 28 26 27 28 28 27 25 23 20 16 12
20 19 18 17 16 16 16 17 17 18 20 20 20 21 17 11 13 6 3 5 12 6 2 5 5 4 7 8 8 8 8 9 8 9 9 8 6 5 4 3 2 2 1 0 1 3 2 2 3 2 3 2 1 4 5 6 6 6 6 4 4 5 6 6 5 5 4 4 8 8 9 12 9 7 15 23 27 27 24 23 25 27 27 27 24 21 18 14
20 20 19 18 17 16 16 16 16 17 19 20 21 19 12 11 10 0 4 13 9 5 8 11 13 14 14 14 12 11 11 11 10 10 9 8 7 5 4 3 3 2 2 0 2 2 3 3 2 4 5 6 6 6 6 5 5 4 3 4 5 5 7 6 5 6 3 3 8 9 9 12 11 8 12 22 24 21 20 21 24 27 28 29 26 22 19 15
20 20 19 18 17 16 15 15 15 15 17 18 19 15 10 10 6 3 13 13 6 10 17 18 18 19 17 16 13 9 8 7 9 11 9 7 7 5 5 3 2 1 2 0 2 0 4 3 4 8 8 8 6 5 4 2 3 3 2 4 6 4 7 9 5 5 0 2 6 5 5 11 12 9 10 17 17 18 24 25 25 29 29 30 28 24 20 17
21 20 19 18 17 16 15 14 14 13 14 14 14 11 8 9 7 8 11 9 13 17 16 15 16 17 16 14 12 10 9 6 7 11 10 7 7 6 5 3 3 1 2 3 1 3 4 4 8 8 6 5 1 1 2 2 2 2 1 1 5 3 4 8 5 3 2 1 5 6 5 9 12 11 10 14 17 23 32 33 32 35 34 32 30 26 22 20
22 20 19 19 17 16 14 14 13 11 11 10 9 8 8 9 9 12 10 8 14 14 11 12 11 13 11 9 7 8 9 7 6 10 9 8 8 6 5 5 4 2 1 2 3 1 3 6 7 4 6 5 1 2 2 0 1 2 2 1 5 4 1 5 5 4 3 3 5 8 8 8 10 13 11 16 23 24 28 30 31 36 37 35 32 27 24 22
23 21 20 19 17 16 14 13 12 10 9 7 7 6 6 8 9 13 11 6 7 8 8 8 8 9 7 5 4 6 8 7 6 8 9 8 7 5 4 5 4 2 3 3 6 4 6 6 3 6 6 5 2 0 3 2 3 4 5 5 7 6 5 6 4 5 5 4 4 7 8 6 7 13 12 7 12 15 18 22 25 31 34 32 29 26 24 21
24 22 21 19 18 15 13 13 11 9 7 6 6 5 5 8 9 11 9 3 5 6 3 5 6 6 7 5 4 5 5 6 7 8 9 8 7 5 3 4 4 2 5 4 5 3 7 4 4 6 3 3 4 2 4 6 2 5 5 9 10 9 8 7 5 5 4 4 4 4 5 6 2 7 9 2 3 8 11 16 22 28 29 29 28 26 23 19
25 24 21 20 18 15 13 11 10 8 7 6 6 5 5 7 7 9 6 3 3 4 3 4 4 4 7 6 6 5 1 4 7 10 9 7 8 7 3 3 2 2 5 4 1 2 3 1 3 5 4 4 3 4 5 6 4 3 5 6 6 6 5 5 4 3 1 3 3 3 1 8 2 3 8 5 6 8 7 10 18 25 28 29 30 27 24 20
26 24 21 20 18 15 13 11 10 9 6 5 5 4 5 5 5 6 4 4 4 4 4 4 5 5 6 7 8 7 1 2 6 8 10 8 7 7 4 3 1 1 4 3 2 2 3 2 3 4 5 4 3 5 5 7 6 3 4 4 3 2 4 4 1 2 3 2 6 2 4 7 6 6 8 6 8 8 7 9 12 20 27 29 30 27 24 22
25 24 22 19 18 16 14 12 11 9 8 7 5 5 5 4 4 4 3 2 3 3 3 3 5 6 7 7 10 8 2 2 4 5 10 9 7 5 3 5 5 4 4 5 3 5 3 4 5 5 4 3 5 6 7 9 4 5 5 4 1 2 3 2 1 4 2 3 7 5 6 4 8 5 3 1 7 9 10 13 13 19 27 29 29 27 24 21
25 24 22 19 19 18 16 14 13 10 9 7 6 6 4 3 2 3 4 2 2 3 2 4 5 5 6 5 8 9 4 2 2 6 10 7 6 4 2 5 6 4 3 4 5 6 2 4 7 8 5 5 6 4 6 8 3 3 3 2 2 1 0 1 1 2 2 2 9 8 7 4 7 4 1 2 4 10 12 12 12 19 26 27 29 28 24 20
25 23 22 20 19 19 16 15 14 11 10 8 7 6 3 1 2 4 1 3 2 1 2 4 4 4 6 4 3 5 4 3 3 7 7 4 4 3 2 3 3 4 1 2 2 5 2 1 2 4 4 5 4 2 2 3 3 3 4 3 4 4 3 2 1 2 3 2 10 9 10 8 6 3 5 4 6 9 10 9 10 17 23 26 30 31 26 21
23 22 23 21 20 19 16 15 14 12 11 9 8 7 3 0 4 3 5 3 1 1 2 2 2 3 6 4 2 2 2 2 4 7 4 1 2 1 2 2 1 3 3 4 3 5 4 1 2 3 4 5 7 4 3 4 3 4 4 4 4 5 3 4 4 3 1 6 7 5 8 8 7 6 5 7 8 7 8 10 13 18 22 29 34 32 27 22
20 22 23 22 21 20 17 16 14 13 13 11 10 7 4 1 1 4 4 2 1 3 2 2 2 3 4 2 1 3 2 1 4 5 3 3 2 2 3 4 2 2 5 2 2 5 3 4 3 1 2 5 6 4 2 5 5 4 3 3 3 4 4 3 3 0 3 7 3 2 4 5 9 10 8 12 13 8 9 14 18 21 25 31 36 33 26 22
21 23 23 22 21 20 19 17 14 15 14 13 11 6 5 2 5 6 4 2 2 3 1 2 2 3 5 2 2 3 2 2 4 3 3 2 1 3 4 4 6 3 4 3 1 4 3 5 1 1 2 6 8 4 2 2 1 4 3 2 2 1 3 4 4 3 5 6 2 4 2 4 8 8 10 15 13 10 15 20 21 26 32 36 37 32 25 22
19 21 21 22 22 21 20 18 16 16 14 14 11 5 4 5 6 4 5 6 3 1 1 2 3 3 4 3 4 4 3 3 3 4 1 1 0 3 3 4 4 5 2 2 0 2 2 5 3 5 2 7 9 5 5 4 4 4 3 4 4 3 2 4 3 5 7 7 3 2 1 4 5 3 6 9 9 8 15 18 18 25 34 37 34 29 24 23
17 18 20 22 23 22 20 19 19 17 16 15 9 4 5 7 4 3 5 5 3 0 1 2 5 4 2 3 3 3 4 4 1 4 1 3 4 4 4 5 6 5 4 2 2 3 3 6 5 1 1 7 6 4 6 6 3 2 2 4 2 4 4 3 3 4 4 6 5 3 4 6 4 4 3 2 3 1 6 12 18 24 30 32 30 28 26 24
18 19 20 24 25 22 20 20 19 18 18 13 6 6 9 6 4 5 4 4 4 4 4 2 3 4 4 3 3 3 3 2 1 2 2 3 3 5 4 5 7 9 7 5 3 2 2 5 4 2 1 3 3 3 3 2 2 1 2 3 5 4 5 1 3 1 2 4 6 3 6 6 2 5 2 3 1 2 4 9 18 24 28 29 29 29 27 24
21 22 24 27 25 20 21 21 18 18 18 12 6 8 6 5 7 6 3 3 4 5 7 2 2 5 5 3 3 4 2 1 1 2 3 3 3 6 5 5 7 12 12 6 3 3 2 4 4 2 2 2 1 1 2 1 3 4 3 5 3 2 3 2 2 3 1 5 6 2 7 9 3 3 2 3 3 4 4 6 11 18 22 24 27 29 26 23
23 23 26 30 26 21 21 20 18 18 15 9 8 9 4 5 9 8 6 5 3 4 5 5 5 5 6 4 4 4 3 3 3 3 3 3 4 6 6 4 7 11 12 8 2 2 2 3 5 1 1 1 1 1 1 2 2 5 3 3 2 2 2 2 1 3 2 5 7 3 6 10 7 4 2 5 10 9 8 7 9 13 18 21 26 28 26 22
18 17 21 26 24 23 22 19 19 17 12 7 8 8 4 5 10 15 14 7 3 3 4 5 6 3 5 6 4 4 5 5 5 4 3 3 4 6 7 5 5 6 8 9 5 2 3 1 4 1 1 1 2 1 4 2 1 2 1 3 0 3 3 2 2 2 2 4 8 6 8 9 6 6 8 11 13 12 11 10 11 14 19 24 28 28 27 24
15 12 12 16 18 23 23 19 19 15 8 8 9 6 3 4 10 20 24 15 5 5 5 4 5 5 4 5 4 3 5 5 6 5 4 4 4 5 7 6 5 3 3 5 3 1 3 2 3 2 3 1 3 4 7 8 5 3 2 2 2 2 1 2 2 3 3 5 6 6 10 10 3 4 8 12 13 13 15 15 14 16 21 26 29 29 28 25
17 10 9 10 12 23 26 18 14 11 6 7 7 4 5 6 7 14 24 25 15 10 8 5 6 7 5 5 4 4 5 4 6 6 4 5 6 5 9 13 10 8 4 4 1 3 3 3 4 1 1 4 6 5 6 9 8 6 6 7 7 5 2 3 5 3 3 6 5 3 12 13 3 3 5 8 9 10 16 17 13 16 24 28 29 29 27 24
19 10 7 11 15 25 27 14 8 8 6 8 8 7 8 8 6 8 17 22 17 11 8 6 6 8 6 6 6 6 5 4 6 7 5 8 10 6 10 19 20 17 11 3 2 4 3 2 3 4 5 5 4 3 0 2 3 3 5 6 6 6 6 6 9 3 2 6 4 1 11 13 2 4 4 5 7 12 20 22 15 17 27 29 29 28 25 21
23 14 6 11 19 28 23 7 6 7 5 9 11 11 12 7 4 7 10 13 11 8 8 6 6 8 8 6 7 6 6 6 7 8 7 7 9 8 12 22 23 15 9 2 1 3 3 2 3 5 4 1 1 3 4 4 3 2 5 5 7 9 10 9 6 1 1 7 4 1 12 12 1 1 2 3 6 13 21 24 19 19 26 29 29 28 24 19
24 21 15 13 20 29 20 6 7 9 8 8 9 13 15 12 9 9 8 11 11 7 6 6 6 10 9 5 7 7 6 7 7 9 10 5 5 10 15 23 24 13 7 7 7 8 5 2 3 2 5 4 3 3 3 3 1 4 5 6 10 13 10 3 1 2 4 8 6 5 15 12 1 2 1 3 5 9 13 19 23 23 25 29 30 28 23 19
17 16 20 22 27 32 23 10 6 7 9 10 9 11 12 12 16 21 16 14 14 8 5 7 8 10 7 4 5 8 9 10 9 6 8 5 2 5 10 20 24 15 9 10 13 15 8 3 5 5 5 7 8 5 3 3 3 2 4 8 12 14 13 7 2 5 10 8 7 10 17 14 5 1 1 3 6 7 9 15 22 24 27 30 30 27 23 20
14 9 11 18 30 36 32 23 12 4 6 10 7 9 15 13 14 21 20 16 15 13 9 7 7 7 6 6 7 9 11 13 11 5 3 5 4 3 5 13 17 13 7 8 16 14 4 2 8 10 10 12 14 11 4 6 4 5 7 11 13 14 16 11 5 10 12 6 9 18 18 18 17 9 6 6 7 9 9 11 16 21 26 31 30 27 24 21
12 8 9 11 17 24 28 26 18 7 5 11 7 7 16 17 10 12 17 16 17 18 12 6 6 8 8 10 10 11 14 14 12 9 5 4 4 3 1 5 9 11 7 7 14 11 3 4 12 13 15 18 19 17 7 5 7 11 11 13 14 13 14 14 15 18 11 4 15 24 17 17 24 18 10 10 11 10 9 11 17 23 27 30 29 27 24 20
16 12 19 21 11 7 14 21 21 14 12 14 10 5 10 15 13 12 13 12 14 19 14 7 13 16 13 13 11 11 14 12 10 10 8 6 5 1 0 1 4 9 6 5 9 6 3 9 12 10 15 20 20 19 11 6 10 12 16 19 15 13 16 21 24 22 13 11 20 26 20 20 24 19 11 11 13 13 14 19 25 26 28 30 29 28 25 20
24 14 18 28 19 10 15 23 24 20 18 15 9 10 14 16 16 13 9 7 9 17 18 12 17 20 16 15 13 12 15 12 10 12 11 12 12 6 2 2 3 6 5 4 4 3 4 8 9 8 13 18 19 17 11 11 12 13 22 27 17 14 20 24 23 22 21 22 26 27 27 27 26 19 11 11 15 19 21 24 25 25 28 31 30 29 25 21
34 22 17 22 20 17 17 19 17 14 15 15 12 17 19 17 17 12 9 11 10 12 17 20 21 18 17 18 17 19 23 17 14 16 13 12 11 7 5 5 3 4 4 4 2 2 5 5 3 5 8 15 17 14 9 10 11 15 28 30 18 16 21 21 20 21 21 23 27 27 25 25 25 19 12 11 15 16 15 17 22 26 31 32 31 29 25 22
45 34 23 16 11 14 13 12 12 10 9 12 16 19 16 16 21 15 10 18 22 13 14 24 25 15 14 21 24 27 29 22 19 21 16 15 14 11 9 8 9 7 5 5 3 3 5 3 1 3 6 13 10 4 3 3 4 14 30 31 19 18 20 19 19 21 21 21 24 21 17 20 21 12 5 9 12 12 11 15 21 27 32 33 32 29 26 22
46 35 33 23 11 12 14 8 10 12 10 14 20 20 16 18 21 15 9 18 27 24 20 23 23 14 12 21 30 35 36 30 26 24 17 16 19 15 11 12 15 13 8 7 5 4 6 5 2 4 7 10 2 4 5 3 2 13 22 20 18 21 22 20 19 22 22 19 16 14 16 21 16 4 4 8 10 10 11 18 23 26 31 33 32 30 25 19
Wind_Direction
7 9 11 12 14 14 13 13 14 14 15 18 19 19 18 17 16 16 17 20 24 26 28 29 34 43 59 83 77 70 66 65 77 84 73 60 53 45 40 36 31 29 24 16 10 9 14 8 359 7 2 357 357 339 355 12 16 32 112 71 29 179 122 180 170 177 154 161 274 159 167 153 117 114 120 104 99 100 92 94 102 109 112 118 127 136 140 140
1 3 5 6 9 10 11 10 10 9 9 11 14 14 14 13 12 12 12 14 18 23 26 27 31 38 50 88 94 86 81 80 87 81 68 60 54 47 41 36 31 28 24 20 21 27 42 36 19 14 10 12 1 338 352 7 29 58 106 63 258 203 165 190 152 151 140 151 186 165 154 142 121 139 147 126 100 105 97 94 107 115 119 129 137 140 146 157
355 357 359 1 3 5 7 8 8 6 4 4 7 9 8 8 8 7 7 9 12 16 22 25 26 34 41 63 114 102 94 87 81 72 65 61 55 49 41 35 31 29 24 21 22 22 26 18 5 5 14 23 10 329 349 3 24 61 83 48 241 203 143 154 132 123 142 164 153 142 167 93 66 145 157 143 136 118 121 137 131 131 142 145 147 150 152 156
350 352 353 354 356 359 2 5 6 5 2 0 0 3 3 2 2 1 1 2 5 9 15 21 22 30 37 41 110 124 96 86 71 70 69 61 56 51 42 31 28 32 27 22 22 18 13 7 1 9 26 22 15 337 339 10 4 351 114 172 226 188 141 149 132 120 135 154 137 127 142 65 33 128 157 142 126 220 172 166 165 159 158 154 153 152 148 143
346 348 349 351 351 353 356 359 2 4 2 360 358 358 360 359 357 355 354 355 358 1 6 13 17 22 32 39 65 353 14 28 134 100 94 69 57 50 40 26 22 33 31 26 24 19 9 5 7 25 40 21 21 22 341 20 16 339 232 216 213 155 137 152 132 117 137 138 119 109 95 18 349 104 153 153 139 199 182 175 174 166 161 159 155 149 144 139
340 343 346 347 348 349 350 352 355 359 359 359 358 356 358 356 355 351 348 347 349 354 357 5 11 14 17 27 52 22 20 117 185 144 120 88 56 46 36 18 19 31 30 29 28 29 24 13 11 19 32 37 30 16 352 2 358 326 280 259 207 123 121 152 137 119 147 135 105 104 78 152 148 101 156 174 182 176 172 168 162 158 158 156 152 149 145 134
334 337 341 342 345 346 346 347 348 351 353 355 355 354 355 355 354 350 344 342 342 346 350 356 2 2 351 334 5 7 12 122 171 160 144 119 59 44 33 13 14 22 23 30 33 38 35 20 17 20 33 59 39 352 328 319 313 166 267 290 272 357 101 141 137 122 141 122 87 75 109 156 164 140 157 165 158 160 160 159 157 154 154 154 151 146 139 126
330 333 335 338 340 341 342 343 344 345 346 348 350 349 350 351 351 349 343 338 336 339 343 348 354 350 330 292 262 267 277 182 172 174 171 146 68 42 32 12 6 13 18 26 33 38 35 23 14 13 32 107 25 344 351 318 302 158 232 301 319 322 2 105 112 118 134 120 89 62 89 182 196 178 138 142 148 153 155 156 156 153 153 153 150 141 133 125
326 329 332 334 336 339 339 340 340 341 341 342 344 343 343 344 346 346 341 336 332 333 336 340 345 340 317 274 253 265 252 209 204 202 195 180 104 41 31 10 2 17 17 21 27 34 33 26 11 358 354 201 342 339 31 14 302 195 212 322 330 316 322 301 272 133 162 169 138 64 50 193 185 168 124 151 155 156 158 158 158 157 155 152 147 140 135 127
320 324 328 330 333 336 336 336 337 337 338 338 340 339 337 337 338 340 337 333 330 328 330 332 338 333 308 267 233 240 241 216 218 213 203 193 184 49 33 2 356 15 14 16 24 34 30 23 11 353 337 291 336 320 335 120 266 261 281 318 299 297 303 276 242 172 173 202 199 92 94 166 167 166 188 169 164 163 162 160 162 163 159 155 150 145 141 129
314 320 324 327 329 332 333 333 334 335 336 335 337 336 334 332 332 333 332 330 327 325 324 324 332 325 293 258 218 216 236 225 219 208 202 194 196 32 29 352 353 8 5 14 22 34 27 14 4 356 342 320 322 312 304 179 276 294 314 315 300 311 301 247 209 189 180 207 220 129 132 162 166 204 213 179 170 171 169 163 168 172 167 162 159 155 148 135
309 314 318 322 325 327 329 330 331 332 333 334 335 335 333 330 328 328 329 327 322 321 319 318 328 319 285 255 237 242 246 230 218 209 203 196 203 278 21 353 356 1 356 5 21 35 21 359 356 357 320 288 311 343 6 328 313 292 323 311 302 345 325 237 195 190 184 201 219 50 31 184 196 239 203 177 172 174 174 170 174 178 174 170 167 161 150 142
303 309 314 318 320 323 325 327 328 329 331 332 333 334 334 330 328 327 326 322 318 318 316 318 323 309 279 256 249 251 245 235 219 210 206 203 214 258 7 356 350 356 351 355 28 34 11 352 347 344 321 297 295 341 314 317 317 280 335 33 305 360 331 261 172 182 183 201 192 122 297 252 227 230 187 176 175 175 176 175 177 178 175 173 169 166 156 146
299 304 310 313 316 318 321 323 325 326 329 330 331 332 333 331 328 325 321 316 314 318 316 317 316 293 262 248 254 248 239 233 215 211 211 214 224 252 318 339 341 344 346 351 52 21 0 353 350 351 348 320 294 302 318 342 27 266 1 52 12 12 285 302 101 164 174 213 159 128 258 260 259 236 183 181 181 178 176 176 179 178 175 173 169 169 162 147
295 300 306 308 312 315 317 320 322 324 327 328 329 331 334 332 329 323 316 311 309 317 318 312 301 271 254 246 254 247 233 226 215 216 217 224 241 256 280 313 334 338 341 342 83 13 357 354 360 10 4 334 333 342 346 354 10 23 21 321 338 155 266 311 310 172 191 221 154 133 257 261 272 230 184 182 184 181 180 179 180 180 176 174 172 170 165 153
291 296 300 304 309 311 313 317 319 321 325 327 327 331 336 332 328 323 314 305 297 314 318 306 276 257 260 252 249 240 230 223 218 223 227 238 251 250 266 299 318 317 336 341 111 2 355 8 26 31 24 9 45 62 35 7 345 1 42 277 270 201 275 318 319 214 210 215 181 184 241 266 284 210 184 183 185 184 183 181 182 182 180 176 174 173 169 160
288 293 296 300 304 307 310 314 317 320 323 326 327 332 337 333 330 324 310 288 290 317 315 280 258 269 263 251 242 238 233 228 226 230 236 247 245 244 259 274 288 296 341 357 191 353 354 41 44 32 35 40 74 73 34 354 323 328 2 307 254 223 248 288 309 291 195 201 235 215 231 252 271 193 186 189 190 189 187 186 185 183 182 178 178 178 175 169
286 290 293 297 301 304 307 311 316 318 321 327 329 334 337 334 332 321 296 261 310 320 308 234 238 292 264 232 218 228 229 226 231 234 241 245 232 233 243 245 257 263 11 47 234 348 352 41 75 62 22 15 37 75 71 262 252 276 292 296 288 271 243 244 281 290 158 228 248 225 250 254 262 209 197 197 194 195 194 190 187 184 182 180 181 182 180 175
283 287 290 294 298 301 304 308 314 317 321 325 329 335 337 335 337 323 199 308 316 303 243 224 221 254 266 247 235 244 248 243 246 246 244 237 220 221 220 217 209 186 119 52 303 351 12 24 52 23 339 295 210 127 172 211 204 238 257 243 262 276 266 241 248 257 199 234 253 233 245 256 255 221 205 203 199 201 202 193 188 187 184 183 185 186 184 180
278 282 285 290 293 297 300 304 310 316 320 326 334 344 348 346 352 288 278 319 308 252 271 270 260 261 262 266 265 260 261 256 246 240 234 220 210 206 195 198 173 130 69 117 277 331 61 34 345 266 256 220 206 185 188 202 192 221 243 239 247 248 273 269 258 275 202 205 258 237 237 258 255 236 213 205 200 202 202 195 192 190 186 186 188 189 188 183
271 275 280 286 288 292 295 298 307 314 319 328 340 353 6 4 8 308 316 323 300 286 286 278 272 266 262 269 267 256 257 252 231 223 217 206 200 195 191 181 114 97 341 99 210 345 67 17 273 243 225 197 198 199 203 216 193 218 223 264 280 233 259 278 270 288 98 180 269 260 245 260 257 252 225 200 193 204 203 196 195 192 190 191 192 191 189 183
264 268 273 278 281 285 287 293 300 307 317 327 340 354 4 1 354 332 327 307 296 299 286 273 268 263 266 270 265 251 243 241 224 211 204 200 196 198 194 150 110 185 327 49 75 358 10 286 260 246 196 156 121 149 183 223 198 210 182 273 293 254 266 294 302 326 22 199 277 287 266 261 262 261 238 202 199 212 209 203 199 194 191 192 192 191 187 181
259 261 266 270 274 278 280 286 291 299 311 317 332 346 352 350 345 340 335 295 295 298 280 271 261 257 262 262 259 237 219 219 215 202 196 197 195 195 178 144 127 157 31 77 132 12 326 257 243 204 145 140 5 22 127 287 272 214 186 213 272 276 287 288 309 336 323 263 262 279 269 261 266 263 250 218 212 218 217 212 206 199 196 195 194 193 188 184
257 258 261 264 266 270 273 278 283 291 299 304 322 332 338 340 340 341 334 295 286 292 272 254 243 246 242 234 235 208 205 215 210 195 189 188 185 183 175 147 117 138 203 165 137 171 258 257 189 119 116 147 168 48 141 174 288 257 207 208 248 268 248 240 289 335 317 300 284 298 287 258 242 249 257 237 219 223 214 206 205 204 200 197 195 194 192 190
256 256 258 261 262 264 266 271 274 276 277 285 299 307 330 331 338 345 341 324 292 285 243 220 236 237 214 208 209 196 209 224 215 198 190 195 188 167 157 160 139 178 214 176 127 212 262 267 144 122 92 129 160 222 190 175 249 298 235 215 232 252 255 263 327 358 341 320 324 4 313 273 239 246 260 286 234 225 200 194 199 201 197 195 194 191 190 194
253 254 256 258 260 260 259 263 263 257 257 266 276 293 319 321 341 348 356 41 310 266 181 194 218 202 199 207 197 180 247 245 211 196 191 201 197 172 145 164 144 190 198 170 121 255 263 345 101 131 139 135 161 250 229 168 147 294 256 204 207 227 250 278 341 2 282 266 291 63 293 275 294 246 252 230 222 225 200 201 202 197 194 194 195 190 189 194
250 251 253 256 257 256 250 250 247 242 246 257 262 280 302 315 346 348 10 28 294 224 148 176 189 184 197 201 186 170 240 230 179 189 193 189 188 175 180 196 122 202 184 126 341 273 166 106 54 100 131 149 189 256 229 159 135 241 244 130 125 204 245 263 319 272 242 273 289 206 167 270 275 250 252 212 214 233 216 217 211 199 197 195 194 191 192 196
247 247 249 250 253 251 245 243 241 240 240 246 252 258 282 313 331 355 62 9 275 163 138 179 169 181 192 190 194 194 227 175 146 188 188 179 184 173 198 208 175 196 182 129 261 269 160 175 198 153 126 183 212 231 192 157 159 245 215 136 130 223 234 254 232 259 288 28 294 244 148 259 269 250 296 171 213 243 226 217 212 202 201 196 191 191 193 196
244 244 244 243 247 246 243 240 235 235 233 232 235 243 265 294 327 39 88 243 255 128 143 178 162 189 185 168 205 218 230 223 167 181 176 174 191 176 192 206 168 176 199 159 220 253 204 197 198 158 153 214 219 225 178 163 196 226 150 107 347 24 66 307 221 259 31 68 264 249 156 219 267 227 107 60 228 243 231 218 212 206 204 196 188 190 193 194
241 241 239 237 240 239 238 236 231 230 225 218 220 229 258 280 77 71 177 238 255 146 129 165 183 182 162 151 234 231 210 222 181 161 169 180 194 185 159 184 140 135 254 336 252 258 301 115 174 164 186 191 159 121 109 137 161 119 75 25 352 5 28 34 50 85 61 249 252 236 182 194 272 244 178 191 218 222 216 208 206 208 205 196 190 191 193 193
242 237 234 232 234 233 230 227 224 222 214 209 215 213 211 91 83 121 213 238 296 221 121 173 213 135 144 157 212 205 181 230 182 159 174 180 175 179 127 172 43 70 358 344 303 304 346 99 231 240 192 138 105 88 38 34 71 92 65 38 356 327 3 22 353 52 93 254 254 228 190 188 238 245 204 224 236 217 201 197 200 203 199 194 193 193 193 191
244 237 231 229 229 228 224 221 216 213 209 203 207 201 167 119 186 192 225 321 338 214 171 186 216 149 155 147 213 206 184 219 181 161 171 158 172 201 181 201 195 8 323 290 300 325 307 227 254 338 186 160 119 86 10 2 33 78 85 60 16 326 350 351 297 288 220 247 241 153 169 204 240 246 234 238 243 230 208 206 203 195 188 191 193 191 190 189
246 239 233 228 227 225 219 218 211 202 201 197 192 172 113 142 228 211 217 273 238 215 157 128 122 133 141 137 258 218 164 217 198 170 174 146 199 249 247 227 167 157 264 224 343 327 293 297 287 127 253 191 157 139 199 278 87 136 148 136 136 16 335 289 267 276 274 266 241 117 132 251 264 259 233 236 249 239 222 221 212 193 185 189 191 187 186 186
250 247 240 233 228 223 216 213 208 198 196 192 180 135 119 202 232 215 218 231 232 342 63 113 102 104 134 172 239 205 169 245 190 155 197 112 146 244 248 246 177 136 155 178 269 196 223 305 227 183 218 178 176 174 162 144 140 177 160 136 157 159 217 261 249 266 292 297 270 141 149 229 239 260 235 246 273 254 226 218 201 189 187 187 185 182 184 185
245 246 242 237 229 220 213 210 206 198 195 187 170 150 186 208 218 202 221 225 221 282 28 69 95 113 227 258 279 219 193 246 174 129 189 169 182 205 190 217 200 144 125 165 255 173 186 260 249 253 124 161 176 177 138 111 111 215 125 117 186 182 185 238 226 225 289 308 275 206 218 223 214 264 272 283 304 246 192 176 164 173 180 179 179 181 184 186
235 237 237 239 231 217 209 208 203 199 196 182 170 215 212 205 188 190 202 181 176 158 125 47 91 141 245 271 281 241 183 217 159 135 226 213 204 211 203 219 194 171 165 167 211 192 192 265 270 14 14 162 159 163 141 129 170 172 127 184 228 175 143 210 270 315 62 279 272 217 249 274 304 279 287 80 94 117 129 155 158 167 174 175 179 182 184 187
229 233 237 239 232 218 209 205 199 199 194 181 197 222 210 204 197 192 188 153 156 142 133 166 203 183 215 231 229 227 183 209 190 157 224 243 229 201 207 245 195 185 192 178 200 218 194 268 255 150 192 223 138 104 46 48 137 131 176 223 217 132 97 115 265 320 68 256 271 216 255 272 267 271 326 87 196 203 176 173 165 171 176 178 182 183 186 191
230 239 245 242 231 216 207 201 199 197 187 184 227 232 211 208 205 194 183 157 125 111 139 200 219 184 190 203 221 205 169 192 189 168 198 231 247 190 167 213 202 197 203 180 180 246 141 268 271 166 182 261 34 71 23 343 104 134 204 251 143 165 247 128 157 265 236 264 273 259 275 268 235 223 220 197 209 203 188 185 182 186 186 184 185 185 188 192
234 243 253 248 229 210 202 197 198 195 185 195 226 229 212 207 215 211 205 191 153 146 167 216 222 197 177 179 191 184 181 194 178 176 196 196 231 199 171 191 192 200 201 168 169 223 126 219 276 308 292 304 36 133 191 222 52 93 356 321 170 185 211 183 164 203 201 265 275 289 304 281 229 186 191 205 207 190 179 189 199 199 193 188 187 186 189 192
221 230 253 250 223 205 197 193 194 191 193 217 218 218 212 214 226 222 218 217 209 194 206 213 206 216 201 184 190 180 192 201 174 182 216 198 220 220 198 191 157 162 182 134 148 201 115 193 251 327 332 251 180 197 192 183 171 152 175 241 242 195 171 262 235 163 177 253 267 283 283 271 221 160 191 200 202 187 178 191 204 200 194 191 189 189 192 195
205 227 248 226 206 198 188 184 194 194 206 230 221 216 226 231 231 223 221 221 223 221 215 194 193 205 196 199 220 188 180 198 182 192 223 210 221 232 206 193 162 143 124 77 150 199 156 192 206 193 235 214 220 225 196 184 180 173 183 195 202 195 174 272 258 200 165 232 231 249 274 267 213 155 200 191 193 187 183 196 203 194 192 191 192 194 196 198
199 225 234 193 191 190 182 183 206 200 213 227 219 221 227 232 231 221 219 220 225 231 223 208 203 205 200 206 211 182 171 194 194 199 227 220 214 212 199 191 173 155 150 135 213 194 144 135 198 233 226 209 240 279 107 180 181 180 207 195 185 185 174 212 245 231 151 230 225 220 272 268 202 145 202 194 186 180 189 200 198 187 191 191 193 196 197 199
206 218 204 183 190 185 178 197 224 198 224 228 226 234 232 233 233 218 212 211 215 217 218 224 200 201 219 209 194 191 187 201 200 195 221 235 217 210 196 186 175 158 147 150 220 158 122 126 209 265 291 341 348 354 16 30 81 209 240 192 184 206 200 208 232 142 159 233 197 187 259 261 286 105 194 171 178 181 193 201 191 182 190 192 194 195 193 195
211 221 217 199 190 184 184 213 213 206 227 220 225 238 234 240 239 220 201 199 205 194 199 223 199 205 223 193 182 202 190 204 220 206 212 225 203 212 203 185 179 172 173 190 177 164 174 186 169 253 306 309 317 352 345 333 190 218 234 198 207 219 214 228 7 92 255 236 174 211 256 255 290 22 34 110 163 185 196 195 187 184 188 191 192 191 191 193
201 220 221 206 192 191 203 224 201 203 217 210 223 232 230 244 237 225 219 210 211 198 192 226 210 202 208 158 184 212 199 211 233 220 212 219 212 222 207 194 190 187 197 196 169 162 176 190 167 189 239 252 259 256 223 220 205 208 226 217 219 215 207 214 209 213 241 232 186 224 253 260 271 350 285 217 187 191 194 187 189 191 190 190 190 189 190 193
188 200 209 194 190 199 216 228 221 213 202 198 223 230 221 233 236 224 220 219 219 212 215 237 210 189 194 175 195 222 221 222 230 227 203 201 226 254 204 203 204 203 213 188 163 157 149 218 202 206 216 228 249 253 193 130 168 214 218 215 214 210 207 207 218 232 234 235 241 242 246 262 268 254 222 221 205 199 198 189 193 194 190 190 189 189 192 195
192 200 195 178 187 204 217 221 218 222 191 181 190 220 216 221 233 222 211 211 213 210 222 246 200 192 202 188 196 228 230 226 226 228 219 190 223 284 210 206 213 214 214 179 171 159 101 238 221 218 226 233 247 252 222 149 224 242 243 232 216 204 202 203 219 231 222 211 255 253 243 251 261 255 225 211 211 209 200 194 197 194 190 189 188 189 192 195
209 217 203 192 187 203 213 209 204 208 215 204 206 240 224 213 214 212 204 201 201 199 207 230 215 210 203 186 197 229 230 229 230 226 224 220 223 235 81 241 218 211 194 171 192 165 125 240 229 212 233 243 249 254 247 232 246 255 260 253 230 195 196 210 224 230 219 217 247 259 256 251 258 257 229 205 206 207 205 204 201 195 189 186 186 188 191 196
216 225 205 198 201 211 212 207 199 201 216 217 222 243 236 223 215 207 189 183 203 203 201 216 224 215 202 195 202 223 227 221 219 220 218 221 220 197 181 261 222 202 182 166 214 169 153 246 239 206 237 251 249 252 251 248 256 263 261 256 241 213 212 218 228 234 230 233 244 257 262 263 264 260 241 219 212 208 207 203 195 188 185 185 187 189 192 197
216 215 195 191 209 219 211 206 197 200 216 214 225 238 234 231 226 213 186 186 202 204 199 215 228 212 198 205 210 224 228 214 210 223 210 204 219 202 195 220 166 161 194 171 208 217 196 242 247 188 241 260 254 249 241 242 251 258 261 258 244 232 234 231 235 238 237 241 246 252 260 266 265 261 252 232 210 198 196 192 186 186 187 186 188 190 193 199
222 219 204 188 211 216 200 193 190 200 215 206 220 233 228 229 228 217 208 213 215 205 189 211 226 212 196 213 218 226 230 215 215 230 210 191 207 203 201 199 151 145 196 181 170 205 201 232 38 120 237 259 258 244 211 239 271 261 264 261 243 233 238 232 231 234 232 236 245 251 253 257 261 262 239 214 195 181 181 180 182 188 190 189 188 190 195 202
222 223 215 206 212 206 197 197 190 202 221 211 217 226 224 227 224 208 215 228 224 222 212 210 217 213 204 218 221 227 231 224 225 236 227 208 214 214 212 199 175 170 175 168 181 191 180 202 173 149 233 258 262 100 118 93 310 264 262 255 231 227 234 235 238 239 232 228 237 243 240 246 257 253 200 212 191 183 189 185 186 190 189 189 191 193 197 202